COSMOS 1375 DEB, 17806

Orbit data source: Space-Track

COSMOS 1375 DEB, 17806 is space debris in LEO originally from a launch on Sun, 06 Jun 1982 UTC launched from the Plesetsk Missile And Space Complex (PKMTR). Debris objects in space refer to the collection of defunct objects orbiting the Earth. Examples of debris include non-operational satellites, rocket bodies, and fragments generated from explosions, collisions, or faulty payload assembly.

Loading next visibility...
Identifier
17806, 1982-055AY
Orbit
LEO
Country
Flag of CISCIS
Related business
Manufacturer
Unknown
Mission
Spacecraft
Bus & Motor
Unknown
Mass
Unknown
Launch date (UTC)
1982-06-06 (44 years ago)
Launch vehicle
Unknown
Launch site
Plesetsk Missile And Space Complex (PKMTR)
Object type
Payload
Rocket body
Debris
Shape & HBR
Unknown shape, 0.2 m
Radar Cross Section
Medium (>0.1 m² and <1 m²)

Expand to show TLE details & history
Last TLE update: 3 days ago

TLE from 3 days ago
0 COSMOS 1375 DEB
1 17806U 82055AY  26170.94817661 -.00000034  00000-0  45169-4 0  9997
2 17806  65.8352  68.4949 0055062 172.1011 278.9848 13.80802502 47077
Epoch: 2026-06-19T22:45Z
TLE epoch observation values (Epoch: 2026-06-19T22:45:22.459Z)
Latitude
65.94257°
Longitude
-89.88889°
Altitude
965.431 km
Speed
7.379 km/s
True Right ascension
10h 38m 29s
True Declination
65° 49' 04"
Sunlit
Object was in daylight at epoch
Visualization orbit readout
Latitude
Unknown
Longitude
Unknown
Altitude
Unknown
Speed
Unknown
Apparent Right ascension
Unknown
Apparent Declination
Unknown
Sunlit
N/A
Visualization observer readout
Local Sidereal Time
05:19:22
Azimuth
Unknown
Elevation
Unknown
Doppler factor
Unknown
Orbital elements
Apogee altitude
999.957 km
Perigee altitude
919.152 km
Semi-major axis
7,337.691 km
Eccentricity
0.00551
Inclination
65.8352°
RAAN
68.4949°
Arg. of periapsis
172.1011°
True anomaly
278.36092°
Mean anomaly
278.9848°
Eccentric anomaly
278.67293°
Mean motion
3.45306 °/min
Orbital period
104.26 mins
BSTAR
0.000045169
Loading maneuver chart data...
Computing Atmospheric mass density...
Loading historical data...
Loading historical data...
Loading historical data...
Loading historical data...
Loading historical data...
Loading historical data...
Loading historical data...

Documentation

Showing up to 5 results
|